Time,TemperatureF,DewpointF,PressureIn,WindDirection,WindDirectionDegrees,WindSpeedMPH,WindSpeedGustMPH,Humidity,HourlyPrecipIn,Conditions,Clouds,dailyrainin,SoftwareType,DateUTC
2013-09-14 00:00:00,65.9,53.7,29.93,North,0,0.0,0.0,65,0.00,,,0.00,WUHU216HW,2013-09-14 04:00:00,
2013-09-14 00:01:00,65.9,53.7,29.93,North,0,0.0,0.0,65,0.00,,,0.00,WUHU216HW,2013-09-14 04:01:00,
2013-09-14 00:02:00,65.9,53.7,29.93,North,0,0.0,0.0,65,0.00,,,0.00,WUHU216HW,2013-09-14 04:02:00,
2013-09-14 00:07:00,65.9,53.7,29.93,North,0,0.0,0.0,65,0.00,,,0.00,WUHU216HW,2013-09-14 04:07:00,
2013-09-14 00:30:00,65.5,53.4,29.94,NNE,23,0.0,0.0,65,0.00,,,0.00,WUHU216HW,2013-09-14 04:30:00,
2013-09-14 00:35:00,65.5,53.4,29.94,NNE,23,0.0,0.0,65,0.00,,,0.00,WUHU216HW,2013-09-14 04:35:00,
2013-09-14 00:59:00,64.8,53.2,29.94,North,0,0.0,0.0,66,0.00,,,0.00,WUHU216HW,2013-09-14 04:59:00,
2013-09-14 01:00:00,64.8,53.2,29.94,North,0,0.0,0.0,66,0.00,,,0.00,WUHU216HW,2013-09-14 05:00:00,
2013-09-14 01:05:00,64.8,53.2,29.94,North,0,0.0,0.0,66,0.00,,,0.00,WUHU216HW,2013-09-14 05:05:00,
2013-09-14 01:30:00,64.1,52.9,29.95,NNE,23,0.0,0.0,67,0.00,,,0.00,WUHU216HW,2013-09-14 05:30:00,
2013-09-14 01:35:00,64.1,52.9,29.95,NNE,23,0.0,0.0,67,0.00,,,0.00,WUHU216HW,2013-09-14 05:35:00,
2013-09-14 01:59:00,63.4,52.7,29.95,North,0,0.0,0.0,68,0.00,,,0.00,WUHU216HW,2013-09-14 05:59:00,
2013-09-14 02:00:00,63.4,52.7,29.95,North,0,0.0,0.0,68,0.00,,,0.00,WUHU216HW,2013-09-14 06:00:00,
2013-09-14 02:05:00,63.4,52.7,29.95,North,0,0.0,0.0,68,0.00,,,0.00,WUHU216HW,2013-09-14 06:05:00,
2013-09-14 02:29:00,62.8,52.9,29.96,NNE,23,0.0,0.0,70,0.00,,,0.00,WUHU216HW,2013-09-14 06:29:00,
2013-09-14 02:30:00,62.8,52.9,29.96,NNE,23,0.0,0.0,70,0.00,,,0.00,WUHU216HW,2013-09-14 06:30:00,
2013-09-14 02:35:00,62.8,52.9,29.96,NNE,23,0.0,0.0,70,0.00,,,0.00,WUHU216HW,2013-09-14 06:35:00,
2013-09-14 02:59:00,62.1,52.7,29.96,NE,45,0.0,0.0,71,0.00,,,0.00,WUHU216HW,2013-09-14 06:59:00,
2013-09-14 03:00:00,62.1,52.7,29.96,NE,45,0.0,0.0,71,0.00,,,0.00,WUHU216HW,2013-09-14 07:00:00,
2013-09-14 03:05:00,62.1,52.7,29.96,NE,45,0.0,0.0,71,0.00,,,0.00,WUHU216HW,2013-09-14 07:05:00,
2013-09-14 03:30:00,61.4,52.3,29.96,NNE,23,0.0,0.0,72,0.00,,,0.00,WUHU216HW,2013-09-14 07:30:00,
2013-09-14 03:35:00,61.4,52.3,29.96,NNE,23,0.0,0.0,72,0.00,,,0.00,WUHU216HW,2013-09-14 07:35:00,
2013-09-14 03:59:00,60.8,52.2,29.97,North,0,0.0,0.0,73,0.00,,,0.00,WUHU216HW,2013-09-14 07:59:00,
2013-09-14 04:00:00,60.8,52.2,29.97,North,0,0.0,0.0,73,0.00,,,0.00,WUHU216HW,2013-09-14 08:00:00,
2013-09-14 04:05:00,60.8,52.2,29.97,North,0,0.0,0.0,73,0.00,,,0.00,WUHU216HW,2013-09-14 08:05:00,
2013-09-14 04:30:00,60.5,52.2,29.98,NNE,23,0.0,0.0,74,0.00,,,0.00,WUHU216HW,2013-09-14 08:30:00,
2013-09-14 04:35:00,60.5,52.2,29.98,NNE,23,0.0,0.0,74,0.00,,,0.00,WUHU216HW,2013-09-14 08:35:00,
2013-09-14 04:59:00,59.9,51.7,29.99,North,0,0.0,0.0,74,0.00,,,0.00,WUHU216HW,2013-09-14 08:59:00,
2013-09-14 05:00:00,59.9,51.7,29.99,North,0,0.0,0.0,74,0.00,,,0.00,WUHU216HW,2013-09-14 09:00:00,
2013-09-14 05:05:00,59.9,51.7,29.99,North,0,0.0,0.0,74,0.00,,,0.00,WUHU216HW,2013-09-14 09:05:00,
2013-09-14 05:30:00,59.4,51.8,30.00,North,0,0.0,0.0,76,0.00,,,0.00,WUHU216HW,2013-09-14 09:30:00,
2013-09-14 05:35:00,59.4,51.8,30.00,North,0,0.0,0.0,76,0.00,,,0.00,WUHU216HW,2013-09-14 09:35:00,
2013-09-14 05:59:00,58.7,51.1,30.00,North,0,0.0,0.0,76,0.00,,,0.00,WUHU216HW,2013-09-14 09:59:00,
2013-09-14 06:00:00,58.7,51.1,30.00,North,0,0.0,0.0,76,0.00,,,0.00,WUHU216HW,2013-09-14 10:00:00,
2013-09-14 06:05:00,58.7,51.1,30.00,North,0,0.0,0.0,76,0.00,,,0.00,WUHU216HW,2013-09-14 10:05:00,
2013-09-14 06:30:00,58.5,51.3,30.02,North,0,0.0,0.0,77,0.00,,,0.00,WUHU216HW,2013-09-14 10:30:00,
2013-09-14 06:35:00,58.5,51.3,30.02,North,0,0.0,0.0,77,0.00,,,0.00,WUHU216HW,2013-09-14 10:35:00,
2013-09-14 06:59:00,58.5,50.9,30.03,NNE,23,0.0,0.0,76,0.00,,,0.00,WUHU216HW,2013-09-14 10:59:00,
2013-09-14 07:00:00,58.5,50.9,30.03,NNE,23,0.0,0.0,76,0.00,,,0.00,WUHU216HW,2013-09-14 11:00:00,
2013-09-14 07:05:00,58.5,50.9,30.03,NNE,23,0.0,0.0,76,0.00,,,0.00,WUHU216HW,2013-09-14 11:05:00,
2013-09-14 07:30:00,58.5,50.9,30.04,NNE,23,0.0,0.0,76,0.00,,,0.00,WUHU216HW,2013-09-14 11:30:00,
2013-09-14 07:35:00,58.5,50.9,30.04,NNE,23,0.0,0.0,76,0.00,,,0.00,WUHU216HW,2013-09-14 11:35:00,
2013-09-14 07:59:00,58.7,50.8,30.04,North,0,0.0,0.0,75,0.00,,,0.00,WUHU216HW,2013-09-14 11:59:00,
2013-09-14 08:00:00,58.7,50.8,30.04,North,0,0.0,0.0,75,0.00,,,0.00,WUHU216HW,2013-09-14 12:00:00,
2013-09-14 08:05:00,58.7,50.8,30.04,North,0,0.0,0.0,75,0.00,,,0.00,WUHU216HW,2013-09-14 12:05:00,
2013-09-14 08:30:00,58.9,50.2,30.05,North,0,0.0,0.0,73,0.00,,,0.00,WUHU216HW,2013-09-14 12:30:00,
2013-09-14 08:35:00,58.9,50.2,30.05,North,0,0.0,0.0,73,0.00,,,0.00,WUHU216HW,2013-09-14 12:35:00,
2013-09-14 08:59:00,60.1,50.4,30.07,NNE,23,0.0,0.0,70,0.00,,,0.00,WUHU216HW,2013-09-14 12:59:00,
2013-09-14 09:00:00,60.1,50.4,30.07,NNE,23,0.0,0.0,70,0.00,,,0.00,WUHU216HW,2013-09-14 13:00:00,
2013-09-14 09:05:00,60.1,50.4,30.07,NNE,23,0.0,0.0,70,0.00,,,0.00,WUHU216HW,2013-09-14 13:05:00,
2013-09-14 09:30:00,61.4,50.4,30.09,NE,45,0.0,0.0,67,0.00,,,0.00,WUHU216HW,2013-09-14 13:30:00,
2013-09-14 09:35:00,61.4,50.4,30.09,NE,45,0.0,0.0,67,0.00,,,0.00,WUHU216HW,2013-09-14 13:35:00,
2013-09-14 09:59:00,62.5,50.5,30.09,NNE,23,0.0,0.0,65,0.00,,,0.00,WUHU216HW,2013-09-14 13:59:00,
2013-09-14 10:00:00,62.5,50.5,30.09,NNE,23,0.0,0.0,65,0.00,,,0.00,WUHU216HW,2013-09-14 14:00:00,
2013-09-14 10:05:00,62.5,50.5,30.09,NNE,23,0.0,0.0,65,0.00,,,0.00,WUHU216HW,2013-09-14 14:05:00,
2013-09-14 10:30:00,63.7,51.3,30.10,NNE,23,0.0,0.0,64,0.00,,,0.00,WUHU216HW,2013-09-14 14:30:00,
2013-09-14 10:35:00,63.7,51.3,30.10,NNE,23,0.0,0.0,64,0.00,,,0.00,WUHU216HW,2013-09-14 14:35:00,
2013-09-14 10:59:00,64.8,51.0,30.10,WSW,248,2.2,2.2,61,0.00,,,0.00,WUHU216HW,2013-09-14 14:59:00,
2013-09-14 11:00:00,64.8,51.0,30.10,WSW,248,2.2,2.2,61,0.00,,,0.00,WUHU216HW,2013-09-14 15:00:00,
2013-09-14 11:06:00,64.8,51.0,30.10,WSW,248,2.2,2.2,61,0.00,,,0.00,WUHU216HW,2013-09-14 15:06:00,
2013-09-14 11:30:00,65.7,51.9,30.10,ENE,68,0.4,0.4,61,0.02,,,0.00,WUHU216HW,2013-09-14 15:30:00,
2013-09-14 11:35:00,65.7,51.9,30.10,ENE,68,0.4,0.4,61,0.02,,,0.00,WUHU216HW,2013-09-14 15:35:00,
2013-09-14 12:00:00,67.7,52.8,30.10,ENE,68,0.7,0.7,59,0.02,,,0.01,WUHU216HW,2013-09-14 16:00:00,
2013-09-14 12:05:00,67.7,52.8,30.10,ENE,68,0.7,0.7,59,0.02,,,0.01,WUHU216HW,2013-09-14 16:05:00,
2013-09-14 12:30:00,69.3,53.4,30.10,SSE,158,1.8,1.8,57,0.00,,,0.01,WUHU216HW,2013-09-14 16:30:00,
2013-09-14 12:35:00,69.3,53.4,30.10,SSE,158,1.8,1.8,57,0.00,,,0.01,WUHU216HW,2013-09-14 16:35:00,
2013-09-14 12:59:00,71.1,54.1,30.09,ENE,68,1.3,1.3,55,0.00,,,0.01,WUHU216HW,2013-09-14 16:59:00,
2013-09-14 13:00:00,71.1,54.1,30.09,ENE,68,1.3,1.3,55,0.00,,,0.01,WUHU216HW,2013-09-14 17:00:00,
2013-09-14 13:05:00,71.1,54.1,30.09,ENE,68,1.3,1.3,55,0.00,,,0.01,WUHU216HW,2013-09-14 17:05:00,
2013-09-14 13:30:00,72.7,55.0,30.09,ENE,68,0.0,0.0,54,0.00,,,0.01,WUHU216HW,2013-09-14 17:30:00,
2013-09-14 13:35:00,72.7,55.0,30.09,ENE,68,0.0,0.0,54,0.00,,,0.01,WUHU216HW,2013-09-14 17:35:00,
2013-09-14 14:00:00,73.8,55.0,30.09,NNE,23,1.1,1.1,52,0.00,,,0.01,WUHU216HW,2013-09-14 18:00:00,
2013-09-14 14:05:00,73.8,55.0,30.09,NNE,23,1.1,1.1,52,0.00,,,0.01,WUHU216HW,2013-09-14 18:05:00,
2013-09-14 14:30:00,74.7,55.9,30.08,ESE,113,1.6,1.6,52,0.00,,,0.01,WUHU216HW,2013-09-14 18:30:00,
2013-09-14 14:35:00,74.7,55.9,30.08,ESE,113,1.6,1.6,52,0.00,,,0.01,WUHU216HW,2013-09-14 18:35:00,
2013-09-14 14:59:00,75.4,55.6,30.08,WSW,248,1.1,1.1,50,0.00,,,0.01,WUHU216HW,2013-09-14 18:59:00,
2013-09-14 15:00:00,75.4,55.6,30.08,WSW,248,1.1,1.1,50,0.00,,,0.01,WUHU216HW,2013-09-14 19:00:00,
2013-09-14 15:05:00,75.4,55.6,30.08,WSW,248,1.1,1.1,50,0.00,,,0.01,WUHU216HW,2013-09-14 19:05:00,
2013-09-14 15:30:00,76.1,56.3,30.07,WSW,248,0.0,0.0,50,0.00,,,0.01,WUHU216HW,2013-09-14 19:30:00,
2013-09-14 15:35:00,76.1,56.3,30.07,WSW,248,0.0,0.0,50,0.00,,,0.01,WUHU216HW,2013-09-14 19:35:00,
2013-09-14 15:59:00,75.6,55.8,30.07,North,0,0.0,0.0,50,0.00,,,0.01,WUHU216HW,2013-09-14 19:59:00,
2013-09-14 16:00:00,75.6,55.8,30.07,North,0,0.0,0.0,50,0.00,,,0.01,WUHU216HW,2013-09-14 20:00:00,
2013-09-14 16:05:00,75.6,55.8,30.07,North,0,0.0,0.0,50,0.00,,,0.01,WUHU216HW,2013-09-14 20:05:00,
2013-09-14 16:30:00,75.4,55.6,30.07,ENE,68,0.0,0.0,50,0.00,,,0.01,WUHU216HW,2013-09-14 20:30:00,
2013-09-14 16:35:00,75.4,55.6,30.07,ENE,68,0.0,0.0,50,0.00,,,0.01,WUHU216HW,2013-09-14 20:35:00,
2013-09-14 16:59:00,74.5,56.3,30.08,East,90,0.0,0.0,53,0.00,,,0.01,WUHU216HW,2013-09-14 20:59:00,
2013-09-14 17:00:00,74.5,56.3,30.08,East,90,0.0,0.0,53,0.00,,,0.01,WUHU216HW,2013-09-14 21:00:00,
2013-09-14 17:05:00,74.5,56.3,30.08,East,90,0.0,0.0,53,0.00,,,0.01,WUHU216HW,2013-09-14 21:05:00,
2013-09-14 17:30:00,74.2,56.3,30.08,SSE,158,0.4,0.4,54,0.00,,,0.01,WUHU216HW,2013-09-14 21:30:00,
2013-09-14 17:35:00,74.2,56.3,30.08,SSE,158,0.4,0.4,54,0.00,,,0.01,WUHU216HW,2013-09-14 21:35:00,
2013-09-14 17:59:00,73.8,56.5,30.09,North,0,0.0,0.0,55,0.00,,,0.01,WUHU216HW,2013-09-14 21:59:00,
2013-09-14 18:00:00,73.8,56.5,30.09,North,0,0.0,0.0,55,0.00,,,0.01,WUHU216HW,2013-09-14 22:00:00,
2013-09-14 18:05:00,73.8,56.5,30.09,North,0,0.0,0.0,55,0.00,,,0.01,WUHU216HW,2013-09-14 22:05:00,
2013-09-14 18:30:00,72.4,56.7,30.09,NNW,338,0.0,0.0,58,0.00,,,0.01,WUHU216HW,2013-09-14 22:30:00,
2013-09-14 18:35:00,72.4,56.7,30.09,NNW,338,0.0,0.0,58,0.00,,,0.01,WUHU216HW,2013-09-14 22:35:00,
2013-09-14 18:59:00,71.3,56.7,30.09,NNW,338,0.0,0.0,60,0.00,,,0.01,WUHU216HW,2013-09-14 22:59:00,
2013-09-14 19:00:00,71.3,56.7,30.09,NNW,338,0.0,0.0,60,0.00,,,0.01,WUHU216HW,2013-09-14 23:00:00,
2013-09-14 19:02:00,71.3,56.7,30.09,NNW,338,0.0,0.0,60,0.00,,,0.01,WUHU216HW,2013-09-14 23:02:00,
2013-09-14 19:07:00,71.3,56.7,30.09,NNW,338,0.0,0.0,60,0.00,,,0.01,WUHU216HW,2013-09-14 23:07:00,
2013-09-14 19:30:00,69.8,56.3,30.10,NNW,338,0.0,0.0,62,0.00,,,0.01,WUHU216HW,2013-09-14 23:30:00,
2013-09-14 19:35:00,69.8,56.3,30.10,NNW,338,0.0,0.0,62,0.00,,,0.01,WUHU216HW,2013-09-14 23:35:00,
2013-09-14 19:59:00,69.1,56.4,30.11,NNW,338,0.0,0.0,64,0.00,,,0.01,WUHU216HW,2013-09-14 23:59:00,
2013-09-14 20:00:00,69.1,56.4,30.11,NNW,338,0.0,0.0,64,0.00,,,0.01,WUHU216HW,2013-09-15 00:00:00,
2013-09-14 20:05:00,69.1,56.4,30.11,NNW,338,0.0,0.0,64,0.00,,,0.01,WUHU216HW,2013-09-15 00:05:00,
2013-09-14 20:30:00,67.9,55.2,30.12,NNW,338,0.0,0.0,64,0.00,,,0.01,WUHU216HW,2013-09-15 00:30:00,
2013-09-14 20:35:00,67.9,55.2,30.12,NNW,338,0.0,0.0,64,0.00,,,0.01,WUHU216HW,2013-09-15 00:35:00,
2013-09-14 20:59:00,66.2,54.6,30.14,NNW,338,0.0,0.0,66,0.00,,,0.01,WUHU216HW,2013-09-15 00:59:00,
2013-09-14 21:00:00,66.2,54.6,30.14,NNW,338,0.0,0.0,66,0.00,,,0.01,WUHU216HW,2013-09-15 01:00:00,
2013-09-14 21:05:00,66.2,54.6,30.14,NNW,338,0.0,0.0,66,0.00,,,0.01,WUHU216HW,2013-09-15 01:05:00,
2013-09-14 21:30:00,65.3,54.9,30.14,NNW,338,0.0,0.0,69,0.00,,,0.01,WUHU216HW,2013-09-15 01:30:00,
2013-09-14 21:35:00,65.3,54.9,30.14,NNW,338,0.0,0.0,69,0.00,,,0.01,WUHU216HW,2013-09-15 01:35:00,
2013-09-14 21:59:00,63.9,54.4,30.15,North,0,0.0,0.0,71,0.00,,,0.01,WUHU216HW,2013-09-15 01:59:00,
2013-09-14 22:00:00,63.9,54.4,30.15,North,0,0.0,0.0,71,0.00,,,0.01,WUHU216HW,2013-09-15 02:00:00,
2013-09-14 22:05:00,63.9,54.4,30.15,North,0,0.0,0.0,71,0.00,,,0.01,WUHU216HW,2013-09-15 02:05:00,
2013-09-14 22:30:00,63.4,54.5,30.15,North,0,0.0,0.0,73,0.00,,,0.01,WUHU216HW,2013-09-15 02:30:00,
2013-09-14 22:35:00,63.4,54.5,30.15,North,0,0.0,0.0,73,0.00,,,0.01,WUHU216HW,2013-09-15 02:35:00,
2013-09-14 22:59:00,62.3,53.5,30.15,North,0,0.0,0.0,73,0.00,,,0.01,WUHU216HW,2013-09-15 02:59:00,
2013-09-14 23:00:00,62.3,53.5,30.15,North,0,0.0,0.0,73,0.00,,,0.01,WUHU216HW,2013-09-15 03:00:00,
2013-09-14 23:05:00,62.3,53.5,30.15,North,0,0.0,0.0,73,0.00,,,0.01,WUHU216HW,2013-09-15 03:05:00,
2013-09-14 23:30:00,61.2,53.3,30.17,North,0,0.0,0.0,75,0.00,,,0.01,WUHU216HW,2013-09-15 03:30:00,
2013-09-14 23:35:00,61.2,53.3,30.17,North,0,0.0,0.0,75,0.00,,,0.01,WUHU216HW,2013-09-15 03:35:00,
2013-09-14 23:59:00,59.9,52.7,30.17,North,0,0.0,0.0,77,0.00,,,0.01,WUHU216HW,2013-09-15 03:59:00,